FW5669 Weather Reports


Display with metric or nautical units.
time (UTC)temp
F
wind
direction
speed
MPH
gust
MPH
rain 1hr
in
rain 24hr
in
rain mn
in
humidity
%
barometer
mb
20260901103102 54 21 2.0 6.0 0.00 0.00 0.00 84 1014.1
20260901101503 54 41 1.0 10.0 0.00 0.00 0.00 84 1014.0
20260901100101 54 36 2.0 6.0 0.00 0.00 0.00 84 1014.0
20260901100002 54 42 2.0 6.0 0.00 0.00 0.00 84 1014.1
20260901094503 54 38 1.0 7.0 0.00 0.00 0.00 83 1014.2
20260901093102 55 75 1.0 5.0 0.00 0.00 0.00 82 1014.2
20260901091503 55 66 0.0 7.0 0.00 0.00 0.00 82 1014.2
20260901090006 55 65 1.0 4.0 0.00 0.00 0.00 81 1014.1
20260901084501 55 64 3.0 5.0 0.00 0.00 0.00 81 1014.1
20260901083003 55 46 1.0 4.0 0.00 0.00 0.00 81 1014.2
20260901081504 55 330 3.0 8.0 0.00 0.00 0.00 81 1014.0
20260901080002 55 79 1.0 10.0 0.00 0.00 0.00 81 1014.2
20260901074502 56 46 1.0 7.0 0.00 0.00 0.00 80 1014.2
20260901073006 56 29 3.0 9.0 0.00 0.00 0.00 79 1014.3
20260901071503 57 55 0.0 5.0 0.00 0.00 0.00 78 1014.0
20260901070003 57 96 2.0 4.0 0.00 0.00 0.00 77 1013.9
20260901064504 58 100 2.0 5.0 0.00 0.00 0.00 76 1013.8
20260901063010 58 70 1.0 4.0 0.00 0.00 0.00 74 1013.7
20260901061503 59 68 1.0 5.0 0.00 0.00 0.00 74 1013.5
20260901060003 59 106 1.0 8.0 0.00 0.00 0.00 72 1013.5
20260901054502 60 73 2.0 7.0 0.00 0.00 0.00 72 1013.4
20260901053003 60 85 1.0 7.0 0.00 0.00 0.00 71 1013.5
20260901051505 61 57 1.0 6.0 0.00 0.00 0.00 71 1013.5
20260901050004 61 43 1.0 6.0 0.00 0.00 0.00 69 1013.5
20260901044505 61 44 2.0 7.0 0.00 0.00 0.00 69 1013.4
20260901043003 62 82 1.0 6.0 0.00 0.00 0.00 69 1013.3
20260901041502 63 56 1.0 6.0 0.00 0.00 0.00 68 1013.1
20260901040002 63 46 1.0 3.0 0.00 0.00 0.00 67 1013.1
20260901034502 64 52 0.0 3.0 0.00 0.00 0.00 65 1012.9
20260901033008 65 16 1.0 6.0 0.00 0.00 0.00 63 1012.7
20260901031502 66 115 0.0 4.0 0.00 0.00 0.00 61 1012.4
20260901030003 67 24 0.0 2.0 0.00 0.00 0.00 58 1012.4
20260901024502 68 148 1.0 5.0 0.00 0.00 0.00 56 1012.2
20260901023004 69 158 0.0 3.0 0.00 0.00 0.00 55 1012.2
20260901021505 71 162 0.0 3.0 0.00 0.00 0.00 53 1011.9
20260901020004 72 172 1.0 3.0 0.00 0.00 0.00 52 1011.8
20260901014506 73 160 1.0 3.0 0.00 0.00 0.00 49 1011.8
20260901013003 74 110 1.0 2.0 0.00 0.00 0.00 46 1011.9
20260901011502 75 21 0.0 3.0 0.00 0.00 0.00 45 1011.7
20260901010002 76 33 1.0 4.0 0.00 0.00 0.00 44 1011.8
20260901004502 76 122 1.0 3.0 0.00 0.00 0.00 42 1011.8
20260901003002 77 173 1.0 3.0 0.00 0.00 0.00 41 1011.9
20260901001503 77 102 1.0 4.0 0.00 0.00 0.00 40 1011.8
20260901000003 78 134 1.0 5.0 0.00 0.00 0.00 38 1012.0
20260831234503 78 154 1.0 4.0 0.00 0.00 0.00 38 1011.8
20260831233002 78 87 1.0 4.0 0.00 0.00 0.00 38 1012.2
20260831231502 78 172 1.0 6.0 0.00 0.00 0.00 38 1012.4
20260831230003 78 85 2.0 7.0 0.00 0.00 0.00 36 1012.5
20260831224504 78 201 1.0 5.0 0.00 0.00 0.00 38 1012.6
20260831223004 79 185 2.0 6.0 0.00 0.00 0.00 36 1012.7
20260831221504 79 183 2.0 5.0 0.00 0.00 0.00 36 1012.8
20260831220002 79 113 2.0 6.0 0.00 0.00 0.00 37 1012.7
20260831214502 78 179 2.0 5.0 0.00 0.00 0.00 38 1012.7
20260831213004 78 190 2.0 6.0 0.00 0.00 0.00 37 1012.8
20260831211503 78 192 1.0 5.0 0.00 0.00 0.00 39 1012.9
20260831210100 78 89 2.0 5.0 0.00 0.00 0.00 38 1012.9
20260831210002 78 94 2.0 5.0 0.00 0.00 0.00 39 1012.9
20260831204502 78 150 2.0 4.0 0.00 0.00 0.00 40 1013.1
20260831203002 78 192 2.0 4.0 0.00 0.00 0.00 41 1013.2
20260831201502 78 137 1.0 4.0 0.00 0.00 0.00 42 1013.1
20260831200007 77 185 2.0 5.0 0.00 0.00 0.00 43 1013.1
20260831194502 76 204 1.0 4.0 0.00 0.00 0.00 44 1013.3
20260831193004 75 204 1.0 7.0 0.00 0.00 0.00 45 1013.3
20260831191503 75 158 1.0 4.0 0.00 0.00 0.00 45 1013.3
20260831190002 76 193 2.0 4.0 0.00 0.00 0.00 45 1013.3
20260831184602 75 159 2.0 5.0 0.00 0.00 0.00 46 1013.2
20260831183003 75 180 2.0 5.0 0.00 0.00 0.00 47 1013.3
20260831181501 75 147 1.0 5.0 0.00 0.00 0.00 46 1013.1
20260831180006 75 116 0.0 6.0 0.00 0.00 0.00 46 1013.1
20260831174502 75 162 1.0 3.0 0.00 0.00 0.00 46 1013.0
20260831173003 74 251 0.0 4.0 0.00 0.00 0.00 47 1013.0
20260831171502 74 160 1.0 4.0 0.00 0.00 0.00 48 1013.1
20260831170004 75 192 2.0 3.0 0.00 0.00 0.00 45 1013.0
20260831164603 74 17 0.0 4.0 0.00 0.00 0.00 40 1012.9
20260831164502 74 16 1.0 4.0 0.00 0.00 0.00 40 1013.0
20260831163002 73 168 0.0 2.0 0.00 0.00 0.00 42 1012.9
20260831161608 72 209 0.0 3.0 0.00 0.00 0.00 45 1012.9
20260831160104 70 31 1.0 3.0 0.00 0.00 0.00 45 1013.0
20260831160002 70 35 1.0 3.0 0.00 0.00 0.00 46 1013.0
20260831154503 68 59 1.0 3.0 0.00 0.00 0.00 49 1013.0
20260831153003 67 44 1.0 3.0 0.00 0.00 0.00 52 1013.0
20260831151502 65 66 1.0 2.0 0.00 0.00 0.00 56 1013.1
20260831150002 62 58 0.0 2.0 0.00 0.00 0.00 60 1013.0
20260831144600 60 29 0.0 2.0 0.00 0.00 0.00 64 1013.0
20260831143119 59 312 0.0 1.0 0.00 0.00 0.00 65 1012.9
20260831141608 58 312 0.0 1.0 0.00 0.00 0.00 65 1012.9
20260831140005 58 312 0.0 2.0 0.00 0.00 0.00 65 1012.7
20260831134501 57 306 0.0 2.0 0.00 0.00 0.00 66 1012.4
20260831133002 58 30 0.0 1.0 0.00 0.00 0.00 64 1011.9
20260831131500 58 29 0.0 1.0 0.00 0.00 0.00 63 1011.8
20260831130001 58 30 0.0 2.0 0.00 0.00 0.00 65 1011.7
20260831124606 58 18 0.0 1.0 0.00 0.00 0.00 65 1011.7
20260831123002 58 48 0.0 0.0 0.00 0.00 0.00 64 1011.8
20260831121502 58 51 0.0 1.0 0.00 0.00 0.00 64 1011.8
20260831120001 59 51 0.0 1.0 0.00 0.00 0.00 61 1011.8
20260831114505 59 39 0.0 0.0 0.00 0.00 0.00 61 1011.8
20260831113002 58 39 0.0 2.0 0.00 0.00 0.00 64 1011.9
20260831111503 57 1 0.0 0.0 0.00 0.00 0.00 66 1012.0
20260831110110 57 349 0.0 0.0 0.00 0.00 0.00 66 1012.1
20260831104602 57 349 0.0 2.0 0.00 0.00 0.00 65 1012.1